Regional Weather Roundup
Issued by NWS

Home | Current Version | Previous Version | Text Only | Print | Product List | Glossary Off
Versions: 1 2 3 4 5 6 7 8 9 10 11 12 13 14 15 16 17 18 19 20 21 22 23 24 25 26 27 28 29 30 31 32 33 34 35 36 37 38 39 40 41 42 43 44 45 46 47 48 49 50

000
ASUS43 KLSX 070559
RWRMO

WEATHER SUMMARY FOR MISSOURI
NATIONAL WEATHER SERVICE SPRINGFIELD MO
100 AM CDT THU MAY 07 2015

NOTE: "FAIR" INDICATES FEW OR NO CLOUDS BELOW 12,000 FEET WITH NO
       SIGNIFICANT WEATHER AND/OR OBSTRUCTIONS TO VISIBILITY.
       CURRENT SKY AND/OR WEATHER CONDITIONS ARE NOT AVAILABLE FOR
       CHILLICOTHE AND FARMINGTON.

MOZ001>031-035>038-043-044-053-054-070700-
...NORTHERN AND WESTERN MISSOURI...

CITY           SKY/WX    TMP DP  RH WIND       PRES   REMARKS
KANSAS CTY INT PTCLDY    70  56  61 S23G31    29.85R
6HR MIN TEMP:  70; 6HR MAX TEMP:  73;

KANSAS C DTWN  MOCLDY    72  56  57 S20G26    29.86R
6HR MIN TEMP:  72; 6HR MAX TEMP:  76;

LEE`S SUMMIT   PTCLDY    69  55  60 S14G23    29.89R
6HR MIN TEMP:  69; 6HR MAX TEMP:  75;

ST JOSEPH      MOCLDY    71  56  58 S16G26    29.83S
6HR MIN TEMP:  69; 6HR MAX TEMP:  72;

CHILLICOTHE      N/A     71  56  58 SE12G21   29.90F
6HR MIN TEMP:  68; 6HR MAX TEMP:  72;

KIRKSVILLE     PTCLDY    65  57  75 S12       29.95S
6HR MIN TEMP:  65; 6HR MAX TEMP:  73;


$$
MOZ066>068-077>081-088>096-101>105-070700-
...SOUTHWEST MISSOURI...

CITY           SKY/WX    TMP DP  RH WIND       PRES   REMARKS
SPRINGFIELD    CLOUDY    68  55  63 S14       29.97R
6HR MIN TEMP:  68; 6HR MAX TEMP:  76;

JOPLIN         CLOUDY    71  58  63 SE18G28   29.89F
6HR MIN TEMP:  71; 6HR MAX TEMP:  75; 6HR PCP: TRACE;


$$
MOZ032>034-039>042-045>050-055>058-069>072-070700-
...CENTRAL MISSOURI...

CITY           SKY/WX    TMP DP  RH WIND       PRES   REMARKS
COLUMBIA       PTCLDY    67  55  65 SE10      29.97F
6HR MIN TEMP:  67; 6HR MAX TEMP:  77;

JEFFERSON CITY PTCLDY    67  54  63 SE9       29.97F
6HR MIN TEMP:  67; 6HR MAX TEMP:  80;

ROLLA          PTCLDY    65  52  62 SE8       30.00S
6HR MIN TEMP:  65; 6HR MAX TEMP:  76;

SEDALIA        PTCLDY    70  54  56 S16       29.94S
6HR MIN TEMP:  70; 6HR MAX TEMP:  78;

OSAGE BEACH    CLEAR     66  54  63 S5        29.99R

$$
MOZ051-052-059>065-070700-
...EAST CENTRAL MISSOURI...

CITY           SKY/WX    TMP DP  RH WIND       PRES   REMARKS
ST LOUIS INTL  MOCLDY    74  53  48 SE8       30.04S
6HR MIN TEMP:  73; 6HR MAX TEMP:  83;

SPIRIT OF STL  MOCLDY    71  51  49 SE5       30.01F
6HR MIN TEMP:  65; 6HR MAX TEMP:  81;

ST CHARLES     PTCLDY    68  53  58 SE7       30.02S
6HR MIN TEMP:  67; 6HR MAX TEMP:  81;


$$
MOZ072>076-082>087-097>100-106>115-070700-
...SOUTH CENTRAL AND SOUTHEAST MISSOURI...

CITY           SKY/WX    TMP DP  RH WIND       PRES   REMARKS
CAPE GIRARDEAU CLEAR     62  53  72 S5        30.05S
6HR MIN TEMP:  62; 6HR MAX TEMP:  80;

FARMINGTON     MOCLDY    64  52  63 S6        30.08F
6HR MIN TEMP:  64; 6HR MAX TEMP:  79;

POPLAR BLUFF   PTCLDY    66  50  56 SE5       30.03F
6HR MIN TEMP:  65; 6HR MAX TEMP:  80;

WEST PLAINS    MOCLDY    65  53  65 S6        30.04S
6HR MIN TEMP:  64; 6HR MAX TEMP:  76;


$$



USA.gov is the U.S. government's official web portal to all federal, state and local government web resources and services.